DW2465 Weather Reports


Display with metric or nautical units.
time (UTC)temp
F
wind
direction
speed
MPH
gust
MPH
rain 1hr
in
rain 24hr
in
rain mn
in
humidity
%
barometer
mb
20260509091541 52 319 0.0 0.0 0.00 0.00 0.00 65 1002.2
20260509090039 52 355 0.0 0.0 0.00 0.00 0.00 61 1002.1
20260509084527 52 328 0.0 0.0 0.00 0.00 0.00 56 1002.0
20260509083026 52 319 0.0 0.0 0.00 0.00 0.00 53 1001.9
20260509081527 51 321 0.0 0.0 0.00 0.00 0.00 51 1001.9
20260509080026 52 309 0.0 0.0 0.00 0.00 0.00 49 1001.7
20260509074531 52 245 0.0 0.0 0.00 0.00 0.00 50 1001.0
20260509073019 52 224 0.0 0.0 0.00 0.00 0.00 50 1000.7
20260509071518 52 223 0.0 0.0 0.00 0.00 0.00 50 1000.6
20260509070016 52 222 0.0 0.0 0.00 0.00 0.00 49 1000.9
20260509064510 52 224 0.0 0.0 0.00 0.00 0.00 47 1001.0
20260509063014 52 221 0.0 0.0 0.00 0.00 0.00 47 1001.1
20260509061508 52 225 0.0 0.0 0.00 0.00 0.00 46 1001.3
20260509060007 52 259 0.0 0.0 0.00 0.00 0.00 46 1001.3
20260509054501 52 268 0.0 0.0 0.00 0.00 0.00 45 1001.3
20260509053109 52 268 0.0 0.0 0.00 0.00 0.00 43 1001.5
20260509051555 53 275 0.0 0.0 0.00 0.00 0.00 42 1001.8
20260509050053 54 275 0.0 0.0 0.00 0.00 0.00 40 1001.9
20260509044553 54 275 0.0 0.0 0.00 0.00 0.00 40 1002.2
20260509043053 55 275 0.0 0.0 0.00 0.00 0.00 39 1002.4
20260509041615 56 275 0.0 0.0 0.00 0.00 0.00 37 1002.4
20260509040050 57 291 0.0 0.0 0.00 0.00 0.00 36 1002.6
20260509034549 57 284 0.0 0.0 0.00 0.00 0.00 36 1002.6
20260509033019 58 297 0.0 0.0 0.00 0.00 0.00 35 1002.5
20260509031525 59 304 0.0 0.0 0.00 0.00 0.00 34 1002.5
20260509030015 60 306 0.0 0.0 0.00 0.00 0.00 33 1002.2
20260509024516 60 278 0.0 0.0 0.00 0.00 0.00 33 1002.3
20260509023019 61 310 0.0 0.0 0.00 0.00 0.00 32 1002.2
20260509021515 62 306 0.0 0.0 0.00 0.00 0.00 32 1002.0
20260509020053 63 271 0.0 0.0 0.00 0.00 0.00 31 1001.7
20260509014544 64 292 0.0 0.0 0.00 0.00 0.00 30 1001.3
20260509013021 64 268 0.0 0.0 0.00 0.00 0.00 29 1001.2
20260509011513 65 246 0.0 0.0 0.00 0.00 0.00 28 1001.0
20260509010010 66 297 0.0 0.0 0.00 0.00 0.00 27 1000.7
20260509004516 67 283 0.0 0.0 0.00 0.00 0.00 25 1000.6
20260509003008 68 319 0.0 0.0 0.00 0.00 0.00 25 1000.5
20260509001508 68 254 0.0 0.0 0.00 0.00 0.00 24 1000.5
20260509000006 69 311 0.0 0.0 0.00 0.00 0.00 24 1000.4
20260508234505 69 322 0.0 0.0 0.00 0.00 0.00 25 1000.4
20260508233004 68 268 0.0 0.0 0.00 0.00 0.00 25 1000.6
20260508231503 70 282 0.0 0.0 0.00 0.00 0.00 24 1000.6
20260508230105 70 252 0.0 0.0 0.00 0.00 0.00 24 1000.6
20260508230000 70 271 0.0 0.0 0.00 0.00 0.00 24 1000.6
20260508224602 70 288 0.0 0.0 0.00 0.00 0.00 26 1000.5
20260508223058 69 244 0.0 0.0 0.00 0.00 0.00 26 1000.5
20260508221557 70 265 0.0 0.0 0.00 0.00 0.00 26 1000.7
20260508220053 70 275 0.0 0.0 0.00 0.00 0.00 26 1000.7
20260508214551 69 262 0.0 0.0 0.00 0.00 0.00 26 1000.8
20260508213050 69 314 0.0 0.0 0.00 0.00 0.00 25 1001.1
20260508211547 69 245 0.0 0.0 0.00 0.00 0.00 26 1001.1
20260508210043 69 309 0.0 0.0 0.00 0.00 0.00 26 1001.3
20260508204544 68 241 0.0 0.0 0.00 0.00 0.00 26 1001.6
20260508203040 68 234 0.0 0.0 0.00 0.00 0.00 26 1001.8
20260508201538 68 260 0.0 0.0 0.00 0.00 0.00 25 1002.2
20260508200031 68 239 0.0 0.0 0.00 0.00 0.00 26 1002.5
20260508194535 67 272 0.0 0.0 0.00 0.00 0.00 25 1002.7
20260508193028 67 315 0.0 0.0 0.00 0.00 0.00 24 1003.0
20260508191528 68 239 0.0 0.0 0.00 0.00 0.00 26 1003.2
20260508190022 67 306 0.0 0.0 0.00 0.00 0.00 24 1003.4
20260508184521 67 265 0.0 0.0 0.00 0.00 0.00 25 1003.5
20260508183023 66 242 0.0 0.0 0.00 0.00 0.00 24 1003.8
20260508181516 66 267 0.0 0.0 0.00 0.00 0.00 23 1003.8
20260508180044 66 307 0.0 0.0 0.00 0.00 0.00 24 1004.0
20260508174541 66 360 0.0 0.0 0.00 0.00 0.00 23 1004.3
20260508173035 65 298 0.0 0.0 0.00 0.00 0.00 24 1004.6
20260508171533 64 200 0.0 0.0 0.00 0.00 0.00 25 1004.9
20260508170030 64 293 0.0 0.0 0.00 0.00 0.00 26 1005.3
20260508164529 64 298 0.0 0.0 0.00 0.00 0.00 25 1005.3
20260508163026 63 250 0.0 0.0 0.00 0.00 0.00 25 1005.5
20260508161520 62 268 0.0 0.0 0.00 0.00 0.00 27 1005.8
20260508160016 61 219 0.0 0.0 0.00 0.00 0.00 30 1006.0
20260508154534 60 227 0.0 0.0 0.00 0.00 0.00 33 1006.1
20260508153012 59 243 0.0 0.0 0.00 0.00 0.00 36 1006.5
20260508151506 57 257 0.0 0.0 0.00 0.00 0.00 36 1006.6
20260508150059 56 252 0.0 0.0 0.00 0.00 0.00 38 1006.8
20260508144608 55 245 0.0 0.0 0.00 0.00 0.00 41 1007.0
20260508143053 53 238 0.0 0.0 0.00 0.00 0.00 42 1007.1
20260508141545 52 226 0.0 0.0 0.00 0.00 0.00 43 1007.2
20260508140042 51 194 0.0 0.0 0.00 0.00 0.00 45 1007.3
20260508134553 50 193 0.0 0.0 0.00 0.00 0.00 45 1007.3
20260508133048 49 202 0.0 0.0 0.00 0.00 0.00 45 1007.4
20260508131504 49 221 0.0 0.0 0.00 0.00 0.00 45 1007.4
20260508130005 49 201 0.0 0.0 0.00 0.00 0.00 44 1007.5
20260508124604 49 238 0.0 0.0 0.00 0.00 0.00 45 1007.5
20260508123056 47 209 0.0 0.0 0.00 0.00 0.00 46 1007.6
20260508121556 45 209 0.0 0.0 0.00 0.00 0.00 47 1007.5
20260508120054 45 224 0.0 0.0 0.00 0.00 0.00 47 1007.3
20260508114552 44 198 0.0 0.0 0.00 0.00 0.00 48 1007.3
20260508113051 44 205 0.0 0.0 0.00 0.00 0.00 49 1007.3
20260508111553 44 224 0.0 0.0 0.00 0.00 0.00 50 1007.3
20260508110049 44 213 0.0 0.0 0.00 0.00 0.00 50 1007.2
20260508104546 44 201 0.0 0.0 0.00 0.00 0.00 49 1007.3
20260508103045 44 200 0.0 0.0 0.00 0.00 0.00 48 1007.4
20260508101544 44 194 0.0 0.0 0.00 0.00 0.00 47 1007.4
20260508100056 44 200 0.0 0.0 0.00 0.00 0.00 47 1007.6
20260508094540 44 188 0.0 0.0 0.00 0.00 0.00 47 1007.7
20260508093038 44 220 0.0 0.0 0.00 0.00 0.00 47 1007.7